GFSSW_2pvu_pres_072.txt.gz
Presure
126 127 100 137 103 142 115 143 129 154 142 146 135 146 156 139 150 139 132 141 150 126 143 139 136 143 138 148 146 135 161 138 150 163 164 184 200 175 178 158 148 164 167 191 194
127 125 132 135 117 141 94 141 152 140 158 139 154 147 144 145 154 149 152 125 119 134 136 138 145 128 156 140 139 146 170 149 150 149 161 203 190 182 149 187 156 169 166 161 187
139 137 139 135 128 132 146 160 139 161 141 154 161 151 143 140 146 148 162 120 132 113 139 135 142 129 145 121 128 122 155 163 158 146 145 150 176 187 189 186 167 180 180 168 168
166 146 134 137 136 136 152 148 131 139 140 151 123 157 126 143 135 146 128 151 114 134 139 124 137 138 136 142 131 144 158 133 140 140 142 151 171 161 205 189 174 180 172 161 181
134 126 157 143 145 134 131 141 136 144 152 125 142 143 162 144 135 139 136 133 158 123 130 132 115 136 140 131 138 143 144 166 141 129 132 146 153 182 166 197 188 178 170 186 167
135 121 139 140 125 141 146 133 135 137 148 140 146 146 122 118 134 154 156 147 145 131 125 151 132 128 130 129 120 134 153 143 162 137 142 140 152 152 173 195 175 183 179 190 180
137 138 136 167 127 141 131 128 157 149 125 149 128 152 128 116 134 110 131 133 148 130 129 124 132 152 149 134 149 143 147 136 142 181 165 169 162 156 165 207 188 171 174 179 195
130 162 150 141 142 132 152 142 159 155 128 122 124 135 148 121 118 120 162 127 134 130 141 120 111 145 145 148 140 152 123 151 168 176 152 145 151 154 186 165 180 188 182 191 186
189 132 159 124 143 124 136 122 128 154 130 157 118 121 116 112 131 126 108 129 129 135 129 123 138 120 141 139 142 143 121 149 182 172 200 137 152 166 159 181 192 176 196 190 171
192 164 161 173 134 145 128 128 179 145 127 167 118 129 123 116 143 121 123 126 130 133 132 126 145 166 136 148 141 137 145 153 179 183 175 176 170 165 186 179 191 192 192 190 178
153 151 152 157 143 125 138 124 128 133 158 159 120 129 146 119 122 107 133 125 123 103 127 170 125 148 152 142 137 143 149 160 189 181 177 159 170 168 176 188 189 191 206 188 199
144 146 165 165 162 121 167 151 157 111 140 132 121 112 122 116 108 122 174 127 133 129 125 131 119 137 173 141 176 177 147 131 177 140 174 162 174 168 187 188 193 208 191 196 223
143 151 162 169 158 160 127 157 143 127 145 162 169 126 137 118 117 113 156 125 153 131 136 125 167 160 194 182 189 185 181 176 180 146 157 177 175 186 196 206 196 202 218 208 205
145 153 169 153 153 170 162 157 160 156 153 172 175 161 129 127 133 126 117 173 132 161 124 191 166 174 182 190 124 183 183 142 136 160 157 177 184 212 199 206 218 235 226 215 113
149 147 150 165 156 156 153 176 176 179 174 154 167 145 111 113 117 113 167 163 131 125 192 125 141 181 191 161 189 189 145 163 149 167 168 192 201 212 219 206 222 197 197 142 185
141 138 127 147 150 164 156 165 161 156 164 156 157 176 125 127 106 178 146 120 132 177 177 208 199 176 192 121 172 177 173 153 162 165 174 199 212 210 226 225 178 185 202 152 198
140 150 148 147 154 161 167 159 158 164 136 172 169 159 116 169 141 159 105 161 171 176 205 175 124 175 172 142 127 150 150 171 181 166 184 213 215 228 240 206 202 187 179 177 99
151 134 145 158 166 172 137 148 153 149 150 148 166 149 144 140 113 148 120 185 171 176 101 191 184 176 188 128 140 142 178 170 171 170 220 224 231 195 216 194 175 175 177 135 155
126 143 144 154 154 129 158 143 139 142 154 149 141 153 153 152 146 159 171 105 167 108 161 178 145 118 119 136 143 172 165 169 183 178 213 230 195 214 192 182 171 170 91 129 209
138 159 131 144 126 137 145 141 149 151 156 154 157 151 144 157 145 164 163 113 156 172 162 171 180 119 114 139 141 164 181 176 173 215 222 212 184 193 172 166 167 166 160 189 215
172 137 135 126 134 139 152 139 153 146 150 147 157 147 138 154 162 154 147 145 180 163 162 170 108 122 123 164 154 171 169 194 201 211 218 201 185 186 183 156 170 153 162 215 202
220 197 190 192 149 140 197 149 134 150 145 159 148 151 164 137 167 155 134 160 170 167 174 134 116 189 116 175 187 170 167 176 213 220 210 195 181 176 178 151 179 156 177 202 192
218 247 183 105 162 129 135 151 152 151 130 149 148 138 159 157 201 139 209 214 194 180 165 123 136 116 162 178 166 178 167 215 213 220 194 194 189 176 169 185 178 157 207 202 186
183 126 182 169 118 181 151 130 191 158 163 158 186 199 154 218 187 196 211 194 167 189 160 132 150 130 161 192 197 176 185 201 203 212 190 188 185 184 156 160 176 185 187 199 190
244 148 139 123 189 180 130 132 135 166 147 148 203 177 176 165 192 202 201 166 180 165 206 133 154 145 170 169 180 192 204 213 206 210 187 185 178 189 168 158 179 198 194 190 186
136 179 244 242 174 148 130 141 129 147 146 155 202 99 151 214 175 206 204 197 178 117 187 125 192 156 171 193 176 178 203 207 222 206 183 184 178 184 174 158 191 197 190 183 180
248 171 163 252 241 161 146 173 200 155 196 195 166 149 144 145 192 141 182 190 179 169 130 136 181 178 174 189 197 175 206 207 217 189 182 179 180 174 172 156 190 194 186 194 183

GFSSW_2pvu_pres_075.txt.gz
Presure
92 92 97 171 144 138 133 167 137 106 138 138 135 136 154 142 136 124 122 149 135 135 143 130 143 128 139 135 142 139 147 139 144 148 171 151 150 166 161 195 196 193 168 180 175
126 119 120 118 169 137 109 100 141 141 136 129 152 138 156 124 141 139 140 147 140 120 130 136 147 142 135 137 123 115 139 154 148 147 143 127 137 144 162 154 160 203 153 185 183
168 132 130 143 129 135 154 142 140 144 148 156 145 156 147 148 154 153 143 139 123 137 121 119 157 130 154 128 147 133 139 145 127 146 147 132 138 132 170 163 157 203 200 190 187
151 129 137 130 125 131 139 144 128 140 154 143 143 136 153 143 140 152 137 167 133 130 156 133 133 141 137 131 138 132 134 130 146 133 137 162 183 144 169 159 162 167 200 193 182
144 144 124 134 151 131 141 133 141 135 152 135 142 152 143 152 136 147 159 132 145 166 141 128 130 132 126 126 111 145 126 146 149 125 142 155 186 184 175 136 156 171 180 208 188
145 151 128 135 129 140 138 132 142 139 145 132 142 145 141 147 117 130 155 144 145 139 150 157 145 139 130 141 134 132 135 149 145 130 149 148 174 174 201 148 144 168 178 201 198
168 140 141 141 152 133 154 142 139 134 145 133 141 143 139 149 136 137 124 117 125 120 126 126 132 132 131 122 137 153 139 148 134 141 176 157 172 179 182 181 172 166 177 188 193
150 179 150 146 131 139 138 162 153 136 127 130 150 127 127 152 133 123 116 121 138 115 133 116 139 132 128 130 130 140 135 140 153 145 144 176 168 181 157 171 179 171 181 189 193
170 135 160 143 155 135 139 142 125 142 133 130 141 133 155 141 132 138 124 126 124 118 114 128 115 129 122 153 113 181 168 147 141 188 182 128 187 156 143 175 169 170 184 186 190
145 170 150 142 147 132 134 136 129 161 131 145 149 140 137 171 115 119 112 117 126 114 126 126 119 117 129 155 132 131 145 155 199 164 191 188 186 174 142 156 176 184 197 190 194
163 153 183 144 123 137 137 145 128 131 140 117 175 161 135 177 122 121 118 122 104 109 137 127 167 134 145 140 137 146 109 185 172 195 195 190 157 141 150 159 190 195 205 199 200
144 134 164 168 142 168 143 170 113 148 147 136 138 161 126 135 132 124 144 118 130 118 130 126 169 134 120 121 126 194 112 169 195 192 195 154 158 159 156 178 189 199 202 211 217
163 140 193 181 148 173 153 141 144 130 161 142 137 144 142 179 110 114 126 116 118 146 161 117 169 120 125 119 173 189 190 200 192 157 143 173 147 155 172 193 198 204 212 226 232
154 145 138 169 181 166 162 144 147 140 150 162 157 153 125 136 153 141 107 111 117 158 119 189 159 167 162 178 169 197 201 190 182 125 189 144 153 159 171 188 212 227 242 192 181
126 148 192 119 143 147 153 159 181 193 163 123 162 123 167 166 127 173 170 121 114 113 165 175 180 104 189 169 175 181 189 168 185 136 135 143 171 173 176 210 222 233 197 206 192
171 130 119 131 143 143 187 143 159 165 159 173 167 165 163 163 178 159 116 104 105 109 111 153 149 102 151 168 200 176 182 184 176 139 137 159 179 171 186 214 226 194 215 191 180
169 110 158 174 121 167 146 163 161 156 152 159 155 161 172 160 159 138 159 169 124 150 145 178 101 158 103 189 172 177 180 150 162 159 138 156 176 183 198 218 198 210 192 185 175
180 184 171 124 192 180 138 148 171 173 151 156 167 154 152 142 152 154 195 147 115 140 144 140 131 158 107 139 151 170 172 162 122 158 150 178 175 187 234 234 214 195 176 165 165
181 183 175 169 168 137 159 116 147 171 155 145 155 172 162 157 151 149 153 147 142 169 152 143 158 182 110 189 162 180 154 120 138 163 142 168 173 200 222 225 190 188 183 163 153
166 159 197 200 170 121 129 145 146 159 156 156 149 168 159 148 149 148 141 151 145 145 149 147 119 118 142 158 157 173 151 129 150 164 170 159 180 217 233 209 196 180 176 170 176
151 203 191 156 205 151 167 144 148 151 163 159 161 166 144 148 154 152 153 141 143 146 153 143 129 154 137 149 167 123 126 182 137 161 171 192 188 197 227 202 191 188 179 158 183
220 146 204 162 204 222 192 156 160 149 138 141 142 140 143 144 146 140 150 142 148 149 157 150 145 139 213 205 186 184 178 139 133 167 185 172 192 212 226 200 189 191 181 182 178
256 238 162 230 208 127 158 120 149 142 142 136 133 145 151 155 155 154 157 145 146 149 172 176 182 151 216 190 189 173 189 200 140 165 188 185 191 212 227 200 195 186 170 183 171
224 197 231 182 167 225 162 176 134 139 129 136 151 149 132 184 155 151 147 156 151 161 157 153 202 154 212 175 180 207 158 156 144 176 183 186 195 216 223 210 189 188 180 180 175
258 245 140 167 221 169 182 207 187 187 135 185 182 131 149 167 133 153 155 165 169 191 147 220 216 197 214 186 187 196 192 142 179 183 163 177 202 212 220 208 189 184 178 180 176
248 259 267 186 132 178 108 178 122 147 188 135 149 195 140 157 148 148 146 148 178 138 216 216 213 208 210 194 172 186 140 133 157 199 160 195 191 203 217 206 194 186 177 180 182
239 215 246 142 130 173 224 137 143 230 214 150 144 185 124 142 139 184 141 144 189 168 206 162 212 203 203 146 198 174 173 194 176 173 188 181 202 203 211 210 195 188 177 175 177

GFSSW_2pvu_pres_081.txt.gz
Presure
103 141 115 137 97 87 95 149 151 91 158 91 160 143 124 158 138 144 159 149 146 135 135 132 135 141 149 128 151 122 133 127 174 149 150 143 131 132 141 129 151 168 188 189 177
99 132 102 148 128 122 87 115 93 121 150 145 142 137 102 109 117 144 136 135 142 126 150 157 133 143 134 148 141 153 143 142 137 118 146 171 145 125 128 141 163 192 190 192 174
127 95 142 129 84 100 155 140 89 91 138 166 125 175 164 134 135 141 157 143 136 153 146 159 128 118 130 144 130 120 130 139 134 122 143 150 144 153 166 189 180 182 126 185 185
141 133 159 105 110 149 106 97 116 118 93 168 137 174 144 145 144 147 140 150 142 139 148 139 121 152 124 147 132 139 125 142 116 139 137 144 172 153 156 185 171 187 188 184 175
161 168 131 120 125 143 130 123 122 148 160 148 136 134 156 143 166 136 139 160 138 140 156 156 133 144 137 126 137 130 122 113 148 131 120 154 144 198 171 179 202 192 183 191 171
170 185 154 132 120 136 145 155 142 141 148 128 150 150 141 182 147 156 137 155 143 140 145 139 153 137 132 169 127 142 140 126 141 115 142 144 158 119 179 198 209 194 185 187 178
153 152 149 166 135 137 129 138 143 148 128 143 123 159 142 141 162 160 144 164 187 140 125 159 158 116 150 114 120 127 123 181 158 126 128 152 166 180 192 205 194 193 141 175 144
155 164 144 156 130 179 139 167 160 126 128 113 191 151 147 158 172 144 135 141 154 132 148 124 119 118 114 111 122 125 125 163 147 144 112 145 159 172 183 203 186 193 172 140 141
161 182 164 159 163 158 165 134 129 131 149 135 129 127 140 139 158 140 141 144 141 145 137 143 123 123 132 121 115 122 122 124 119 131 111 204 114 168 206 173 170 194 180 143 149
192 171 152 120 195 148 143 141 135 157 144 143 153 121 132 169 140 155 138 143 152 154 153 135 123 118 119 121 104 151 168 160 114 180 113 186 149 212 180 189 175 189 145 143 159
196 183 180 177 172 127 150 135 137 150 184 129 131 155 172 138 140 131 136 134 143 125 140 151 130 116 117 121 118 112 124 158 115 113 211 148 166 177 150 195 119 163 167 142 160
183 140 184 155 171 195 136 143 137 141 143 142 145 132 143 136 139 144 136 125 143 129 158 129 122 157 122 121 125 115 160 158 98 176 138 170 161 167 146 158 161 140 156 166 149
189 144 176 182 187 153 161 155 161 139 180 139 146 146 139 147 144 148 128 147 138 154 145 134 159 107 121 165 134 164 120 160 111 100 107 161 159 144 168 187 181 183 132 176 142
176 117 182 129 168 135 183 169 155 151 145 149 170 141 152 142 148 123 145 138 167 142 142 176 133 139 112 113 118 115 153 140 132 103 94 157 162 150 169 164 155 188 185 189 144
141 194 166 184 184 187 149 125 167 139 139 147 144 165 140 152 152 132 131 138 154 140 163 137 123 152 138 112 167 152 151 103 112 97 120 170 157 150 153 151 151 162 203 176 180
198 182 104 148 183 154 171 188 140 153 178 169 147 158 149 148 160 160 139 144 137 139 152 156 121 116 127 175 132 153 147 106 164 96 152 149 153 151 152 205 152 153 186 166 157
230 184 191 179 151 185 182 197 187 134 153 164 157 172 155 147 159 146 146 148 147 173 163 146 128 176 153 165 152 154 140 133 129 147 143 146 150 141 145 194 201 171 186 172 161
244 208 186 184 167 163 179 173 181 156 176 194 144 159 180 154 155 143 139 144 143 147 151 124 157 168 159 161 155 150 140 154 123 141 152 149 147 145 141 187 140 195 191 184 167
235 211 183 183 178 182 174 159 166 176 140 144 180 180 138 145 146 172 174 173 180 152 173 171 177 152 158 151 151 151 101 147 150 107 147 144 153 156 152 216 206 157 188 210 187
263 216 200 197 182 168 195 166 181 160 184 167 133 160 159 171 145 144 173 155 166 155 154 192 157 149 150 148 159 155 140 146 137 144 140 142 162 165 149 214 208 157 195 181 191
251 219 202 197 183 183 142 158 178 199 141 137 155 147 130 178 151 149 180 177 167 179 159 149 164 177 140 167 149 153 148 132 137 134 137 145 144 166 203 209 207 186 167 196 196
243 238 212 203 194 189 178 181 141 180 192 171 115 175 157 133 157 125 159 145 166 160 173 173 162 151 160 163 149 170 156 142 141 139 140 143 149 209 223 213 205 195 166 177 196
243 247 254 216 199 187 179 132 133 176 184 191 182 189 188 152 153 144 152 162 151 159 144 139 169 151 174 138 151 142 149 145 141 138 127 135 202 193 156 217 209 199 181 201 183
234 249 255 251 201 191 187 132 180 168 180 184 185 183 178 183 151 141 128 140 159 159 156 162 173 149 156 162 146 135 153 154 145 146 138 135 192 146 210 203 204 132 195 193 195
243 234 244 261 201 218 192 202 196 110 179 189 170 130 186 183 185 184 148 187 161 132 136 143 165 156 137 142 148 128 197 175 147 142 137 205 140 188 168 196 166 157 188 186 193
231 238 233 240 246 200 200 196 169 166 149 138 191 195 194 207 196 193 182 142 130 136 134 142 133 139 130 139 158 148 139 158 149 146 141 142 134 136 198 214 196 213 199 192 198
242 235 232 236 241 238 240 197 200 194 247 204 141 188 174 187 184 185 191 190 197 183 166 212 202 183 137 133 141 174 138 163 145 135 173 131 139 192 187 202 198 161 206 164 195

GFSSW_2pvu_pres_084.txt.gz
Presure
88 103 151 133 158 88 128 90 153 136 89 94 110 93 138 144 150 163 127 146 151 147 141 131 129 134 147 161 139 143 130 132 160 133 141 137 157 139 157 133 135 194 126 186 199
139 164 116 151 124 125 161 88 92 97 144 158 122 159 143 134 125 120 142 142 156 145 138 133 146 134 140 139 151 146 151 143 143 133 127 125 115 123 129 133 123 179 208 191 132
119 84 105 161 113 120 106 90 99 150 92 162 138 137 147 157 150 146 136 147 141 138 142 137 159 129 146 144 154 133 137 129 131 131 138 140 150 178 146 190 186 199 203 163 193
177 176 91 102 104 136 115 142 132 133 101 89 136 135 162 161 132 147 137 141 149 141 145 149 148 143 123 120 123 134 185 132 121 122 130 130 116 140 171 185 117 205 203 203 149
170 115 141 162 130 110 101 166 124 91 95 167 157 91 138 143 142 142 138 145 141 143 160 142 150 147 130 137 134 123 159 134 133 126 155 126 120 135 217 156 192 205 201 188 149
151 140 171 126 134 158 144 101 144 138 168 142 146 136 152 142 173 138 147 137 180 175 158 136 172 152 147 132 141 144 125 126 121 132 125 160 126 181 143 169 195 206 178 174 195
137 127 165 163 112 138 150 142 126 135 129 131 154 140 165 139 148 154 144 150 143 141 161 148 147 158 140 159 157 104 118 123 126 127 124 120 125 111 175 135 180 186 193 182 127
181 122 176 170 159 135 123 133 154 130 120 134 167 129 146 142 122 152 141 161 151 145 144 149 143 154 144 143 116 120 124 117 130 121 132 115 127 170 167 152 178 147 167 153 136
113 122 152 124 175 172 155 172 138 149 143 126 180 153 140 143 148 131 148 147 164 146 148 148 152 160 143 123 122 133 111 108 118 117 122 114 116 184 165 150 160 150 183 168 164
181 182 159 167 189 176 155 177 129 139 155 143 157 142 169 147 142 159 178 150 164 147 148 146 153 161 131 143 120 118 114 147 113 172 147 104 116 108 159 159 172 148 173 163 157
155 192 121 153 135 173 184 149 169 119 153 129 137 144 148 131 132 171 146 134 165 153 141 146 141 148 148 125 130 120 119 121 115 120 156 97 107 98 113 130 163 151 150 150 152
217 169 149 161 181 138 172 135 118 181 168 132 146 150 134 137 136 142 134 149 133 141 151 135 154 136 148 146 131 123 120 123 140 116 144 101 141 98 97 183 156 154 153 159 197
296 248 155 162 151 170 168 192 135 163 161 183 170 149 133 146 150 131 130 136 155 136 143 137 121 149 125 150 134 133 117 130 118 145 109 133 94 98 159 152 153 152 148 150 177
281 268 265 192 220 167 147 149 157 146 159 151 129 149 144 177 174 141 141 133 163 139 142 153 145 132 149 149 138 142 129 116 147 166 149 157 95 97 161 147 152 143 139 144 207
271 272 276 230 192 194 182 163 191 191 170 178 136 195 187 172 157 139 150 147 143 143 129 152 145 141 163 137 158 144 126 152 126 169 156 156 96 170 153 144 151 145 144 184 202
266 143 280 106 222 114 211 182 161 175 178 177 186 171 129 145 137 153 144 160 147 149 156 138 131 141 163 145 137 144 147 155 161 162 155 153 147 98 139 149 144 147 156 203 203
260 254 261 271 195 218 148 169 132 193 174 146 182 139 145 148 133 163 148 156 152 135 152 147 143 149 149 142 120 137 164 143 149 161 154 154 157 149 145 126 141 143 155 216 163
261 255 265 278 236 205 203 193 156 196 158 134 140 179 177 177 146 139 154 145 151 146 138 155 153 144 137 162 150 149 142 169 160 159 154 155 146 149 142 144 137 143 147 155 211
259 256 257 265 259 242 153 191 201 198 159 133 153 156 182 188 144 166 140 153 148 143 149 152 147 135 145 148 140 169 151 183 153 152 159 157 146 128 147 141 141 138 144 204 143
246 253 256 261 265 240 211 196 111 187 185 154 168 177 167 119 142 147 145 161 151 158 142 150 152 157 145 163 147 170 180 162 152 149 151 152 135 146 140 141 140 133 139 179 158
238 248 254 248 252 247 199 196 218 187 186 139 173 163 180 186 179 152 197 171 203 161 166 152 141 155 139 186 170 148 180 157 158 141 168 149 160 150 120 142 129 133 140 166 185
255 243 252 260 253 250 235 211 208 161 188 162 179 177 174 177 176 125 121 133 162 187 141 173 138 133 168 194 175 164 143 162 174 146 158 152 150 156 151 138 141 171 140 129 179
247 247 244 251 253 248 237 201 206 206 130 189 172 187 154 164 196 160 167 110 133 171 130 129 147 150 167 164 165 168 164 165 185 153 136 152 140 128 158 150 135 140 164 132 147
249 242 238 247 244 247 240 228 210 201 193 187 189 186 175 178 173 170 143 177 182 122 132 129 143 140 151 161 142 144 151 144 171 170 186 142 140 133 145 196 138 138 134 138 146
238 244 239 232 246 236 241 234 220 209 157 189 170 180 150 176 177 180 184 170 186 186 180 178 147 184 186 175 155 148 175 172 161 167 151 140 133 155 136 124 159 124 133 136 136
204 243 231 229 232 240 232 234 233 210 209 194 189 189 179 177 187 169 166 179 177 185 183 195 182 124 184 190 160 142 145 146 149 199 135 136 133 127 158 140 129 125 149 137 143
200 234 233 233 229 236 235 231 225 224 206 199 196 192 190 133 132 143 181 165 182 180 184 182 186 181 176 149 161 170 133 180 193 146 145 133 142 115 134 166 135 138 131 132 165

GFSSW_2pvu_pres_087.txt.gz
Presure
101 150 155 136 133 148 149 153 152 156 102 89 90 129 114 94 150 146 126 137 155 146 145 138 139 143 145 152 150 135 157 128 130 170 154 118 126 125 126 130 135 132 202 206 211
164 151 144 131 124 142 144 148 128 111 163 91 93 95 95 115 157 158 139 164 148 159 145 146 150 133 142 132 144 148 128 142 136 145 146 137 118 128 159 148 201 172 192 192 214
177 141 92 151 135 134 147 128 130 88 178 143 130 142 107 124 152 154 138 167 152 145 156 149 146 141 151 123 148 136 160 133 139 118 124 124 127 121 135 131 127 170 203 194 208
189 149 130 91 128 84 140 151 188 88 178 171 98 103 142 99 123 134 118 159 132 146 143 148 153 140 146 123 136 148 123 152 133 137 140 125 153 126 116 121 180 158 185 202 197
172 185 126 122 88 99 83 84 141 89 164 134 98 157 90 116 120 155 131 143 165 145 135 158 141 168 138 151 135 133 146 131 124 131 133 136 118 140 119 112 142 167 177 162 160
151 135 83 178 132 111 114 115 156 113 100 164 108 89 164 162 92 132 155 131 140 144 137 146 180 156 149 148 145 128 142 139 154 125 126 119 143 117 118 118 103 169 169 155 168
157 180 201 145 143 170 175 90 173 93 126 166 148 135 131 173 154 177 139 156 138 147 139 170 144 150 156 146 160 143 129 104 144 115 130 122 143 127 130 121 109 164 141 173 167
160 120 162 204 179 164 163 139 136 145 150 115 125 170 144 167 166 176 142 130 149 168 149 141 166 148 157 148 143 156 145 141 139 110 111 118 120 110 112 115 112 121 161 168 147
181 156 160 179 154 167 160 156 130 136 146 154 112 157 167 125 147 131 144 169 141 157 148 147 151 150 142 152 140 164 156 127 121 128 112 112 124 123 108 129 97 105 139 169 159
172 137 141 134 159 149 169 169 190 138 126 167 151 147 130 152 132 157 138 169 139 128 152 146 158 163 149 144 162 152 170 126 114 117 113 114 118 148 100 138 96 100 151 157 159
159 189 138 125 144 166 125 152 176 174 185 190 177 151 169 182 126 167 166 137 149 143 127 147 153 164 155 153 145 157 130 134 124 125 123 141 117 116 103 160 99 105 146 154 152
104 170 143 130 148 176 143 164 160 165 132 146 142 139 128 131 164 131 162 141 142 152 160 136 148 151 161 138 145 148 152 140 160 157 118 117 121 115 112 124 144 101 147 155 147
205 188 187 142 166 186 124 146 151 165 181 135 142 181 157 135 167 141 166 137 149 174 142 172 147 136 143 152 141 149 150 142 154 132 138 131 120 136 160 129 96 97 153 148 150
245 211 209 181 164 177 182 182 127 191 155 177 155 155 177 132 135 126 138 139 133 136 138 163 136 153 131 140 141 136 141 146 163 146 131 155 126 124 146 164 136 138 148 141 142
254 293 116 130 209 154 171 189 157 194 173 136 194 140 166 151 164 146 151 147 152 142 133 138 141 128 148 126 139 144 153 145 151 138 144 126 128 112 149 171 154 152 145 118 147
240 237 213 292 251 212 183 194 189 151 151 164 162 131 146 134 181 180 148 146 175 143 140 159 138 140 133 138 125 131 145 139 138 165 130 126 149 111 166 158 126 153 146 143 139
221 274 275 283 256 284 202 191 148 197 179 179 165 180 187 189 165 173 161 137 163 136 147 145 156 148 149 186 143 156 138 146 145 157 153 160 126 131 180 152 97 148 146 136 149
220 267 266 263 269 281 297 279 198 193 191 180 193 141 157 172 118 151 164 191 160 181 150 175 148 168 148 137 134 148 154 140 150 136 147 153 144 158 158 152 150 143 155 142 147
226 263 264 264 257 272 278 255 143 145 110 113 159 129 185 172 173 177 178 183 153 161 130 178 138 141 146 149 154 140 152 156 136 145 150 174 146 148 174 158 157 149 144 156 144
218 230 253 255 221 262 273 276 254 255 206 203 212 197 151 177 186 182 180 164 174 166 175 143 142 136 133 150 144 144 141 154 148 147 142 158 152 160 179 156 180 177 159 139 150
216 239 254 262 247 257 221 265 254 242 222 139 205 180 145 191 194 162 153 151 152 183 174 147 171 188 145 138 152 144 155 148 144 168 156 153 176 167 156 157 175 155 165 150 133
219 241 247 262 251 244 257 273 245 248 227 213 210 216 209 136 199 194 193 140 140 142 184 168 176 147 175 146 149 143 161 153 153 134 137 163 157 166 163 148 180 153 141 159 133
216 252 212 257 260 253 253 256 253 240 241 232 215 212 209 206 200 196 176 190 196 181 178 187 176 157 137 134 174 144 149 137 138 138 171 169 168 158 169 170 164 173 182 154 155
223 233 232 260 248 251 256 247 260 238 229 225 217 216 213 205 197 126 141 197 161 177 151 165 149 137 141 146 178 159 133 145 168 162 154 148 142 149 146 149 150 174 138 184 119
223 223 226 256 261 248 246 248 260 244 229 192 208 205 209 204 196 191 187 186 130 176 148 154 184 127 172 179 148 159 163 174 133 142 161 151 144 177 182 169 177 149 166 136 138
221 219 209 192 252 246 241 239 246 253 227 225 212 205 190 201 203 201 194 143 149 183 185 170 175 175 122 176 182 178 184 181 175 123 149 172 172 187 158 134 141 171 208 124 128
221 216 211 201 242 241 239 234 214 242 249 228 221 214 202 196 204 203 189 198 193 146 182 184 185 175 164 177 161 144 174 160 179 131 184 177 181 191 131 163 126 136 160 211 205

GFSSW_2pvu_pres_090.txt.gz
Presure
149 170 141 171 149 156 143 170 168 136 153 131 130 137 147 131 132 132 153 146 125 143 122 164 135 131 135 139 145 140 112 133 136 133 119 126 122 130 128 131 141 158 122 181 138
140 137 161 189 137 143 141 143 152 152 147 149 136 115 90 155 107 136 118 157 101 132 159 146 172 140 147 141 152 150 143 151 134 137 168 135 144 136 118 125 128 117 147 143 182
171 156 131 126 172 172 136 118 143 168 147 161 126 151 92 98 130 108 128 137 149 141 166 130 149 165 143 149 137 130 141 152 149 156 141 134 126 125 122 126 163 119 109 161 171
128 202 155 137 172 140 139 140 116 114 154 126 150 139 152 152 97 147 128 129 165 144 135 160 147 168 148 150 167 157 140 120 153 125 157 132 142 134 120 118 116 109 109 173 181
182 176 123 132 140 174 186 165 136 132 112 145 91 129 122 100 97 96 120 132 146 152 136 159 132 147 149 158 152 154 149 135 136 152 127 131 122 108 117 117 115 113 107 108 148
185 148 184 197 132 102 160 189 149 132 141 141 89 131 125 88 123 90 101 93 114 149 143 139 166 148 135 150 149 155 161 147 127 139 140 131 143 121 126 127 129 104 113 107 129
187 157 134 181 144 85 120 99 186 114 128 101 157 147 134 159 94 94 168 129 150 143 162 144 153 143 156 145 155 150 152 151 143 128 118 118 148 112 120 115 114 108 104 102 99
197 181 172 188 182 149 174 109 90 150 105 91 131 112 134 146 97 150 168 102 148 142 145 158 140 142 149 141 155 145 163 141 156 147 146 137 146 111 114 122 145 112 99 100 111
214 175 184 176 186 176 199 185 126 84 90 161 143 94 168 144 126 156 158 141 159 151 140 138 138 167 147 143 148 158 141 155 143 163 170 124 119 118 111 122 160 96 140 102 163
211 216 178 182 173 180 179 140 184 165 173 143 158 157 150 110 141 170 161 121 158 160 157 135 142 135 151 148 151 153 156 150 155 132 145 152 114 118 121 117 119 105 105 98 155
221 214 173 162 169 187 183 174 195 134 148 196 194 164 140 158 132 114 148 166 127 163 167 147 142 153 160 140 137 149 165 151 155 150 153 137 139 119 144 143 134 121 171 98 161
202 221 207 166 198 167 165 135 162 174 144 185 160 196 125 163 175 153 122 124 174 125 124 149 134 155 141 135 135 146 143 164 139 150 141 154 133 153 137 132 125 114 140 165 97
158 180 199 209 178 160 164 156 161 159 172 167 173 176 183 128 163 146 150 157 156 161 129 169 138 140 148 155 163 156 141 143 154 157 149 139 150 144 162 132 122 145 144 137 157
167 161 152 165 173 164 156 169 173 178 134 166 157 115 147 175 131 151 179 151 136 137 180 142 153 156 137 147 142 159 175 132 139 142 134 142 142 146 150 140 141 154 153 123 117
260 154 161 161 154 154 129 159 158 185 153 178 151 169 162 170 142 195 187 141 133 145 134 191 136 163 161 131 165 125 162 129 149 163 138 146 150 134 140 139 141 158 136 147 151
254 255 264 172 165 161 166 218 161 153 184 158 188 169 178 177 177 173 162 153 143 154 160 135 147 147 132 145 175 139 133 140 135 131 124 141 120 153 140 145 135 147 137 146 144
253 251 252 270 268 229 182 155 131 215 185 171 193 172 140 152 167 168 156 177 152 180 156 145 146 159 147 163 167 148 145 174 143 163 150 145 149 156 134 150 148 160 150 146 143
250 248 248 255 261 262 298 215 193 190 189 195 170 155 191 128 128 131 184 172 137 179 149 164 153 148 142 148 142 159 146 141 181 143 153 176 144 139 150 143 144 142 147 149 168
249 253 248 245 255 249 241 304 205 160 138 135 180 177 182 197 178 149 186 192 185 187 194 162 179 178 160 155 141 174 160 141 179 152 176 150 153 140 141 156 144 135 149 156 146
229 241 242 248 238 253 267 290 215 272 208 199 188 186 161 186 193 201 167 174 141 164 149 163 153 142 131 144 153 160 156 152 142 148 137 143 151 140 151 150 147 144 147 137 158
228 241 238 243 244 234 238 277 282 292 292 279 198 205 193 188 152 179 182 183 179 184 155 172 139 175 145 158 173 161 180 147 133 139 158 150 158 150 142 169 149 148 140 140 145
245 234 245 239 238 230 251 265 271 279 281 276 265 259 192 119 193 191 178 176 142 123 173 162 141 165 158 160 181 171 173 168 167 179 155 149 155 140 145 136 138 135 157 146 143
194 241 236 240 237 225 225 220 276 264 275 271 256 255 249 239 196 189 161 193 132 192 191 193 188 175 178 179 175 182 138 174 161 181 157 166 147 149 160 152 158 134 146 160 144
233 247 233 240 233 226 215 227 266 266 264 268 251 248 240 236 237 235 227 196 181 192 148 153 186 189 179 188 178 141 171 177 170 177 188 174 142 140 132 129 131 160 144 160 153
219 245 230 224 229 228 217 216 266 260 257 264 262 240 246 235 229 223 222 194 217 214 205 154 123 128 131 185 206 146 173 150 124 181 176 155 165 163 144 162 156 159 150 149 135
210 231 233 226 229 236 222 217 254 250 242 252 260 244 237 236 226 221 215 214 204 203 203 204 205 198 209 160 212 113 183 203 192 137 188 193 165 178 185 175 177 178 164 166 194
214 222 240 214 229 229 212 252 225 251 244 236 250 258 236 228 231 218 210 208 204 201 202 203 209 201 201 153 194 153 159 200 168 155 182 183 178 167 179 176 172 202 196 190 204

GFSSW_2pvu_pres_093.txt.gz
Presure
143 158 162 183 127 144 138 145 142 156 133 144 160 152 159 155 159 112 151 143 134 166 150 137 154 131 151 129 127 154 160 131 138 135 139 139 131 127 139 138 110 117 132 117 116
161 152 135 183 153 133 147 144 140 151 160 141 152 165 163 156 149 132 138 99 160 98 159 149 138 165 159 134 162 132 138 143 175 141 154 139 138 168 163 131 134 129 115 111 130
163 162 133 148 132 158 144 157 139 154 166 160 161 165 148 159 133 158 90 136 143 135 151 166 135 149 158 148 151 149 147 169 150 171 153 154 154 166 128 129 121 121 116 112 108
82 181 168 147 144 146 172 171 172 156 174 142 165 170 164 144 94 113 99 163 154 147 171 150 148 139 165 146 156 153 154 163 137 142 127 144 122 147 134 131 126 120 104 109 109
184 80 156 120 181 149 137 192 178 157 141 143 180 144 163 154 140 146 161 130 110 165 146 134 163 146 142 153 145 161 151 155 149 133 130 149 138 133 124 126 122 125 118 106 115
160 203 110 175 182 127 149 133 126 187 161 143 140 145 185 110 141 158 138 91 96 107 156 157 159 141 163 142 151 148 145 153 160 153 146 156 122 128 134 118 143 111 115 108 109
193 201 200 89 174 187 174 137 155 151 181 138 141 123 134 90 117 144 91 90 159 158 93 146 159 142 156 152 168 149 149 136 159 152 166 139 113 144 143 112 116 111 116 115 108
194 186 205 183 120 178 176 182 136 139 168 140 147 162 135 131 157 146 146 142 92 131 138 156 137 155 142 161 144 137 151 151 146 160 161 160 139 168 162 106 117 111 119 117 101
149 139 176 204 206 155 163 189 161 98 140 119 165 164 133 119 140 113 136 158 89 168 159 163 156 143 145 128 153 144 143 148 142 148 163 143 158 154 119 153 118 110 126 120 121
191 206 196 200 213 200 176 116 185 112 167 125 87 134 92 116 104 107 146 149 122 117 171 154 133 171 167 120 135 151 138 147 157 155 149 163 149 155 153 151 127 147 122 111 122
201 211 209 201 209 203 187 179 122 161 194 194 186 89 105 165 89 152 103 132 152 145 153 170 148 125 165 156 148 140 131 158 157 147 145 149 162 152 141 146 157 133 145 166 134
177 201 206 211 203 209 194 186 187 179 173 180 193 181 180 188 182 132 161 165 164 120 141 163 168 168 131 142 170 131 146 147 139 141 149 143 147 163 160 156 140 146 144 151 131
209 158 200 212 207 203 200 211 178 164 177 176 127 153 163 146 186 165 149 165 132 160 120 135 143 137 175 130 175 164 142 139 151 148 134 156 141 132 125 132 146 143 153 141 140
291 237 200 211 205 202 204 195 178 180 172 192 181 175 191 135 158 169 185 171 145 152 169 139 155 129 143 175 143 121 162 156 137 147 149 138 158 163 145 151 137 147 134 149 140
289 292 282 154 152 207 200 208 172 179 180 167 192 181 210 189 190 169 158 189 185 181 176 159 174 169 160 136 164 165 173 170 159 139 143 151 126 140 138 131 128 139 146 149 137
245 263 298 299 149 157 191 199 210 186 162 175 182 184 152 155 142 164 185 125 192 165 178 149 169 157 145 135 135 131 178 163 135 165 165 149 125 137 138 124 141 146 157 152 148
221 239 249 272 269 149 155 167 203 227 220 169 168 166 161 151 143 156 192 146 160 170 154 181 156 168 133 154 143 156 162 146 165 139 147 145 161 172 141 146 163 137 148 132 159
249 231 238 240 267 278 271 154 155 156 213 218 212 184 171 151 167 173 164 200 162 170 159 159 169 186 182 151 144 150 167 161 173 145 183 145 135 163 154 150 144 158 170 143 135
204 222 240 239 249 273 269 277 152 156 159 155 150 154 158 184 184 162 185 132 169 155 187 176 170 171 181 194 161 146 163 149 170 163 146 157 157 144 137 180 142 140 154 148 149
214 209 252 252 232 263 262 263 262 251 150 158 160 160 187 147 196 146 202 163 186 185 128 152 165 168 177 168 149 171 154 159 171 154 176 162 160 160 161 139 132 134 144 159 153
204 203 217 243 232 255 255 255 255 265 268 240 159 160 164 163 180 202 176 194 184 145 160 186 159 177 182 158 184 178 180 179 179 181 180 163 153 149 163 136 163 157 151 151 138
214 196 222 200 252 243 227 247 249 255 255 299 316 214 204 185 178 202 141 205 207 210 166 170 188 145 148 191 139 185 155 189 158 174 142 144 149 140 181 170 186 155 173 176 162
200 215 194 207 200 227 248 238 250 253 250 251 253 277 282 211 206 137 188 188 193 181 118 181 172 175 186 178 163 189 173 175 166 174 151 167 160 146 177 178 156 187 171 168 179
210 220 201 204 217 212 240 247 245 244 248 246 244 295 287 267 127 200 197 198 192 189 190 126 190 186 186 143 175 176 143 167 158 149 172 173 175 151 185 176 187 194 129 168 204
227 205 192 211 189 185 210 238 237 241 239 242 250 262 282 274 269 264 263 247 205 193 191 175 194 194 193 159 185 184 178 138 187 191 186 195 185 186 213 159 194 185 198 192 164
223 226 224 213 205 230 220 214 239 238 231 236 227 268 265 269 271 262 251 263 247 250 249 237 199 190 187 186 188 137 185 120 146 186 193 138 222 152 115 217 225 217 198 169 156
219 239 224 201 203 197 191 185 220 215 234 226 236 258 268 257 260 269 246 245 248 241 235 237 236 234 220 206 198 166 198 161 215 214 210 201 223 149 136 207 208 180 203 214 155

GFSSW_2pvu_pres_096.txt.gz
Presure
185 174 134 133 162 126 146 149 152 160 154 157 158 137 143 147 92 152 133 154 149 135 139 149 152 151 144 146 152 155 133 143 164 175 148 139 137 139 134 123 124 127 119 117 107
163 145 168 167 158 197 163 152 147 160 156 149 151 154 133 146 127 95 144 133 111 126 131 133 146 149 153 165 146 150 129 144 137 153 172 156 118 148 127 147 157 129 121 118 119
135 138 181 149 124 120 178 180 152 144 138 165 145 152 148 112 138 160 163 98 149 161 152 108 153 147 145 147 149 149 150 151 147 147 182 151 145 160 159 137 128 112 117 118 111
177 86 114 159 197 169 133 147 163 129 139 141 126 147 162 159 149 166 168 150 91 143 140 139 150 143 135 155 142 141 159 161 156 157 160 146 158 124 149 135 135 130 121 109 105
164 148 134 148 137 164 138 114 178 197 164 148 148 152 141 160 167 162 166 159 153 147 168 160 137 141 168 151 143 158 141 148 156 157 154 162 147 143 154 124 120 120 122 132 111
106 173 121 120 129 185 177 177 139 131 187 168 152 136 153 162 134 163 107 140 96 146 140 129 155 159 143 158 148 140 159 150 156 144 151 154 158 169 147 147 150 147 141 127 114
189 108 201 184 81 148 126 169 142 151 141 143 167 172 135 164 157 158 168 168 145 148 90 101 93 140 137 168 154 142 143 166 151 173 154 152 148 148 165 158 144 162 175 129 112
203 164 192 199 191 174 92 162 165 148 126 147 140 172 174 160 133 146 140 156 162 138 109 107 101 154 139 159 142 159 153 162 154 148 152 174 157 157 156 147 160 111 109 127 113
216 177 163 193 185 191 191 86 137 129 143 185 155 129 173 193 149 141 154 141 162 171 126 121 133 154 129 139 154 155 141 148 162 155 141 147 152 152 157 158 167 153 154 115 113
201 199 191 193 194 184 183 188 182 168 159 165 176 151 153 174 174 155 132 120 135 138 129 138 121 151 150 146 167 151 164 149 170 161 169 154 147 165 151 151 157 166 158 150 147
210 175 199 104 202 187 176 152 161 183 154 182 179 119 119 144 84 129 90 176 118 140 90 137 97 152 167 166 148 169 133 160 155 166 144 134 138 158 150 138 157 146 151 168 165
206 209 190 195 195 204 124 187 188 199 185 119 180 149 178 167 91 155 150 151 105 89 127 140 138 151 145 151 174 163 167 140 168 158 149 142 147 172 146 148 149 158 155 136 138
243 223 201 218 204 206 210 109 195 179 203 188 172 134 134 181 175 101 85 147 177 94 166 136 139 152 160 144 144 161 168 163 157 146 142 168 139 139 163 143 146 147 158 152 146
288 275 235 211 212 201 148 193 214 202 192 190 189 178 171 180 179 188 183 155 160 174 177 146 168 159 165 153 120 129 156 126 174 172 175 139 148 154 151 139 130 135 134 142 143
238 274 288 263 225 210 200 201 178 198 201 195 212 160 178 181 151 172 195 182 203 176 162 177 160 161 162 169 133 164 148 132 141 157 169 157 152 133 171 145 163 125 127 132 140
220 232 268 284 259 232 210 213 197 196 202 197 206 204 193 177 182 182 177 130 200 194 140 179 185 175 170 160 164 124 143 138 166 176 142 159 162 138 152 132 141 167 136 150 167
218 209 216 245 265 276 246 221 202 204 205 213 197 207 197 180 182 179 179 177 180 197 187 195 150 139 181 174 134 170 174 175 150 168 171 135 141 183 140 144 166 165 151 135 147
219 222 229 215 233 267 285 308 160 202 200 193 211 201 208 198 186 184 183 180 180 168 195 192 174 150 146 175 153 182 168 170 175 142 172 158 143 146 164 169 157 167 140 157 157
208 216 215 204 224 236 259 273 304 226 206 211 194 209 207 202 207 181 184 172 177 187 184 143 142 138 188 181 147 151 153 188 190 184 187 158 168 159 153 162 151 171 160 184 179
266 203 212 227 210 224 225 240 260 288 216 155 192 183 207 206 203 198 187 171 168 162 157 156 147 159 130 166 178 163 168 172 173 169 172 191 189 193 166 170 177 131 153 159 179
242 197 216 191 201 212 225 226 237 250 278 242 156 194 158 201 202 213 210 146 162 171 149 159 160 151 164 169 173 181 143 172 172 166 171 178 165 172 172 176 176 135 174 172 179
246 239 220 223 210 210 221 245 220 243 247 267 276 203 156 152 155 154 200 179 173 162 158 154 157 186 158 159 186 199 143 149 180 178 178 176 168 178 66 190 176 184 159 175 153
240 243 212 205 194 233 190 230 241 222 249 238 277 278 189 154 154 155 152 158 145 174 160 175 199 157 168 177 181 175 150 176 168 168 171 139 153 158 144 180 179 160 155 168 152
253 248 246 241 233 197 214 188 204 247 239 235 242 263 261 263 184 156 155 138 155 149 160 133 162 188 196 174 193 187 186 185 178 164 174 188 183 132 178 175 120 148 179 132 181
251 251 216 216 255 212 232 198 207 197 198 253 251 258 257 253 249 262 289 263 264 163 163 166 151 185 187 209 200 194 196 196 197 194 174 170 180 170 179 181 140 171 184 169 186
262 246 249 204 248 231 201 206 203 197 197 235 242 241 258 248 248 263 246 277 274 278 281 199 198 202 207 187 186 185 183 182 178 183 183 185 184 191 190 188 187 188 185 142 188
242 244 242 233 204 243 213 217 188 189 193 197 198 242 254 248 241 271 279 276 260 259 272 267 249 267 208 197 139 196 193 193 192 193 189 187 154 189 189 170 185 202 191 207 221

GFSSW_2pvu_pres_102.txt.gz
Presure
146 172 133 154 125 139 151 136 185 139 188 119 174 153 168 136 152 147 145 103 163 104 141 147 148 129 152 137 131 159 156 140 146 141 144 130 150 126 148 117 123 132 122 123 128
166 156 131 173 137 137 123 132 192 140 141 133 148 163 164 117 156 119 144 118 132 147 154 144 147 155 150 132 150 149 142 138 156 159 167 152 155 152 157 157 170 147 117 127 136
166 140 126 122 123 145 132 193 149 133 211 174 187 150 149 171 134 166 148 150 133 96 143 161 154 172 157 144 131 150 150 143 141 157 140 151 154 155 156 156 135 148 159 164 115
140 139 166 152 129 119 134 163 132 173 191 146 141 136 141 159 157 163 152 154 99 155 147 151 145 120 150 149 147 170 163 131 153 149 152 149 141 164 159 139 156 157 134 130 127
115 144 154 170 151 176 135 173 132 179 163 160 154 147 150 158 173 126 153 159 131 96 142 129 129 154 155 142 143 136 147 147 147 144 139 154 147 145 146 153 160 144 144 139 119
176 124 179 160 179 140 136 128 141 124 163 136 149 206 169 132 141 156 155 158 139 144 95 131 120 145 153 149 141 148 151 150 145 149 155 142 171 154 147 154 153 155 157 145 135
186 156 110 178 169 171 132 181 126 128 126 126 189 195 135 150 131 153 143 162 158 156 147 144 141 146 141 119 155 97 137 151 151 158 155 152 133 160 170 153 159 148 153 155 165
206 193 197 193 162 176 174 131 175 172 188 138 146 162 139 144 153 167 158 149 150 95 134 156 96 95 105 155 148 154 96 119 130 166 161 144 165 147 159 165 171 156 153 145 155
222 206 192 110 195 190 166 178 165 126 149 162 176 143 141 152 148 138 173 139 148 167 148 148 158 159 89 97 90 94 98 93 118 153 133 168 154 150 151 155 159 156 159 155 152
217 220 206 197 141 127 127 119 124 126 175 144 172 164 188 174 161 138 126 155 190 136 147 146 142 90 165 111 168 92 118 122 161 155 153 151 166 159 149 143 160 163 149 160 168
235 221 214 210 179 181 112 195 121 194 179 130 133 164 174 170 150 183 174 131 156 171 133 161 136 168 84 146 96 170 97 158 160 163 145 160 141 160 157 155 128 164 154 164 168
273 269 220 212 204 194 186 197 170 158 182 124 169 147 176 130 172 199 189 142 135 150 155 172 177 161 154 167 153 130 141 147 127 147 140 117 144 138 127 170 169 174 177 174 149
230 254 280 222 210 213 199 191 178 121 190 193 165 174 169 132 128 153 131 140 178 152 144 148 142 121 156 177 157 141 157 137 145 135 115 143 149 143 158 142 154 167 155 156 165
276 227 241 275 225 203 213 202 197 162 117 172 191 152 166 108 159 175 127 174 171 149 198 173 172 129 136 127 141 155 173 138 157 137 129 140 145 136 144 141 152 149 129 157 142
298 278 227 232 279 227 194 204 214 204 198 191 138 150 191 189 135 124 183 148 178 178 156 159 133 90 161 150 119 153 185 181 164 141 152 155 148 154 141 146 129 154 132 132 135
228 289 124 226 229 269 247 214 212 228 205 197 162 115 173 140 182 179 185 182 191 156 154 139 169 180 178 173 179 157 148 146 141 158 175 163 174 78 151 167 160 136 159 129 133
208 218 241 259 225 228 256 290 216 220 209 228 201 177 185 185 191 172 184 182 192 188 150 187 177 180 185 162 161 177 156 149 149 155 153 184 157 154 126 164 172 165 160 139 168
278 222 277 239 251 227 223 264 269 220 209 209 205 212 178 177 176 205 100 117 186 191 188 190 190 173 186 168 171 184 188 174 159 160 158 165 162 162 167 165 171 177 176 168 178
237 235 174 274 265 247 229 228 264 276 245 205 207 203 208 215 212 172 222 198 187 187 191 189 174 165 176 189 197 195 185 157 186 180 180 184 155 175 181 152 156 167 163 157 153
305 287 246 202 269 257 245 226 195 224 268 283 228 201 195 206 207 196 187 208 213 137 190 193 191 180 183 180 191 202 193 170 164 190 162 181 195 189 192 192 185 181 154 186 183
340 298 249 236 191 220 259 243 249 231 225 250 298 269 212 203 196 202 209 198 196 204 193 194 195 186 187 185 191 199 203 188 197 189 186 182 172 165 179 159 148 167 168 194 191
359 305 269 266 172 263 267 254 224 227 215 220 228 257 261 279 221 205 187 194 208 186 190 187 195 211 206 201 211 202 184 201 213 198 187 151 177 168 166 163 152 153 156 144 149
311 305 271 268 261 232 242 259 252 245 235 244 228 220 263 262 270 285 238 215 195 203 207 206 197 198 207 189 204 196 203 194 210 209 202 196 177 178 179 185 149 158 158 161 159
322 137 271 262 252 211 256 240 247 248 245 251 228 218 211 218 237 257 269 282 296 213 197 201 199 204 193 188 182 185 196 219 198 208 206 198 193 153 163 161 158 154 158 158 126
303 308 289 270 270 261 220 247 164 180 254 266 268 236 234 226 217 221 238 251 258 300 302 307 290 206 211 207 192 193 196 201 209 198 203 202 209 160 168 184 196 134 155 160 161
309 298 289 274 276 263 253 234 258 244 231 243 256 215 271 262 244 207 212 214 231 243 249 296 293 292 291 295 221 204 207 188 191 195 191 199 198 202 207 212 157 164 152 200 197
301 285 280 274 271 262 245 240 225 224 226 200 188 207 233 238 209 212 210 208 218 229 229 236 233 286 205 287 293 293 285 243 216 207 212 206 203 193 153 159 151 152 172 170 195

GFSSW_2pvu_pres_108.txt.gz
Presure
182 167 156 145 142 132 158 139 182 131 113 126 141 138 160 185 132 146 163 153 137 121 97 135 121 140 129 154 145 147 149 153 145 169 149 139 127 156 151 138 133 130 147 149 127
132 132 158 123 160 151 146 161 142 143 141 101 160 160 148 186 167 124 152 157 163 145 160 101 142 148 158 154 139 149 152 141 156 138 156 159 158 140 141 158 167 135 151 139 126
134 147 131 180 130 170 124 190 143 152 120 131 199 163 156 137 175 179 162 150 169 168 125 145 107 131 171 149 161 152 136 152 151 143 140 143 149 155 149 137 158 147 158 131 157
163 197 180 127 127 157 181 136 138 173 134 148 159 124 151 130 137 144 170 162 149 156 152 102 132 151 128 165 151 168 149 132 151 154 161 143 151 134 139 147 148 161 149 159 129
248 143 152 133 180 129 149 184 124 142 139 180 127 152 145 199 166 137 163 150 142 167 161 159 153 127 125 146 169 133 166 158 118 152 143 132 146 142 155 164 137 149 139 123 123
282 135 159 130 121 181 166 133 163 133 164 152 147 130 144 176 123 167 156 158 129 141 169 162 162 162 149 138 162 163 150 166 148 151 153 138 140 153 132 167 124 151 153 159 156
260 276 288 201 193 160 152 118 145 150 153 119 185 146 140 186 128 152 128 155 172 147 175 145 163 164 156 155 157 154 105 106 168 149 165 103 102 162 152 165 150 161 168 167 152
291 246 278 279 133 182 138 142 165 150 123 136 146 145 191 155 130 133 157 118 184 192 167 194 170 131 166 115 132 164 120 93 117 162 102 127 156 141 141 158 159 161 150 161 162
278 295 251 136 252 146 145 184 137 149 144 118 174 149 154 188 125 160 143 135 152 175 158 149 154 166 142 156 145 128 165 163 155 134 120 143 144 125 103 151 157 143 151 151 159
234 310 275 261 255 170 132 201 127 149 136 177 138 152 169 155 118 137 137 133 147 172 186 130 143 146 166 157 121 156 116 97 99 116 135 127 96 96 146 147 159 108 152 121 156
203 271 325 254 270 273 193 141 199 167 151 185 146 138 177 156 150 152 169 175 136 190 186 146 161 150 141 155 142 175 141 143 134 157 104 85 93 151 102 150 149 104 165 164 155
216 175 297 282 251 278 255 214 192 157 124 180 137 146 125 145 184 128 184 125 138 141 165 166 166 137 155 175 183 164 149 161 91 148 156 94 113 148 95 97 139 162 159 144 159
226 266 285 281 268 249 280 259 215 200 123 134 160 140 121 130 124 154 170 136 135 189 172 176 170 154 152 148 115 120 188 144 186 139 141 161 146 118 143 140 138 150 165 174 138
251 224 270 294 225 264 250 274 253 217 201 198 129 154 176 167 154 133 136 141 142 197 150 179 163 163 141 192 172 164 164 160 170 150 95 135 147 148 138 174 177 175 128 149 143
210 237 213 188 289 285 241 248 264 247 223 202 173 132 149 153 106 158 124 123 134 137 142 163 145 176 180 148 130 130 142 146 162 162 138 134 131 163 111 104 167 159 142 140 143
313 268 272 199 289 235 265 238 251 254 244 217 172 187 137 167 152 138 164 131 139 121 139 165 169 156 143 169 181 143 134 155 157 158 155 98 174 153 122 66 111 129 185 133 106
369 316 381 323 295 243 264 260 233 253 271 251 215 199 194 133 143 165 189 159 187 162 128 133 166 174 166 172 178 163 160 190 126 166 138 157 147 139 83 114 136 150 164 149 163
351 370 411 248 199 277 259 267 261 241 260 271 226 211 197 196 195 175 127 186 117 164 178 121 133 138 149 174 182 146 172 151 181 172 168 182 175 174 168 170 179 184 177 173 172
335 337 375 352 323 209 215 185 278 267 236 249 269 228 214 198 209 197 198 201 182 185 128 123 140 130 146 151 172 182 176 168 174 147 152 174 175 139 170 177 170 182 168 172 183
320 337 330 393 269 181 229 209 280 275 257 235 257 269 216 210 208 208 203 195 187 184 134 181 148 125 122 145 144 181 146 157 140 154 185 182 175 174 182 158 177 178 181 183 175
402 313 316 342 334 161 298 211 177 226 223 267 239 251 267 215 207 207 211 203 188 195 191 193 180 140 157 188 183 126 145 168 198 186 185 173 173 172 170 185 187 190 193 194 195
376 420 305 338 366 321 305 299 285 216 213 249 259 233 243 246 242 209 202 201 206 209 204 200 197 189 190 190 180 183 131 180 136 108 188 186 182 176 192 186 187 188 193 196 184
446 420 302 328 372 333 313 301 217 222 230 211 208 255 256 227 235 249 208 206 199 199 210 210 205 193 182 188 189 192 191 191 196 127 189 175 175 182 195 195 206 213 195 192 189
440 373 397 318 314 344 309 297 299 271 216 246 193 225 80 249 227 223 231 257 255 205 201 200 207 205 199 194 193 195 144 191 187 189 187 185 184 178 192 198 204 218 224 225 214
424 356 444 300 321 351 313 299 292 284 182 212 263 241 269 267 260 244 221 221 230 243 266 242 197 195 198 200 204 205 207 214 219 223 215 178 180 177 215 220 210 198 205 206 199
415 418 422 307 332 357 321 300 302 285 279 269 203 253 245 264 260 242 241 205 219 220 225 260 256 252 221 197 195 205 204 204 205 208 207 206 203 207 213 212 210 214 211 207 208
414 416 408 449 309 335 330 297 297 288 273 248 151 254 241 202 226 242 247 243 219 206 220 226 240 265 264 261 220 215 201 209 210 211 213 212 207 205 202 240 319 231 260 315 329

GFSSW_2pvu_pres_111.txt.gz
Presure
165 155 131 177 126 159 124 177 150 147 137 173 189 168 170 139 163 133 154 95 137 102 140 123 122 142 153 145 146 138 148 133 132 153 159 159 154 148 147 125 139 161 135 155 152
168 130 124 131 134 160 156 131 168 102 180 96 144 178 193 170 141 132 160 171 150 155 153 148 143 145 155 152 141 151 146 144 147 146 148 146 139 161 158 146 153 138 143 143 138
206 202 164 147 146 137 168 159 136 166 101 190 96 147 131 141 139 142 174 172 136 154 118 134 148 163 106 139 152 159 143 150 149 139 155 151 147 145 142 134 131 149 149 152 154
230 212 211 189 131 170 126 175 140 122 158 188 134 145 135 162 135 136 183 143 135 152 152 163 132 145 112 156 137 148 153 143 141 142 132 141 154 160 149 144 141 138 146 153 129
279 165 204 212 130 132 155 144 162 145 171 155 154 162 122 149 137 169 163 134 158 126 168 160 147 106 139 132 127 137 165 140 132 154 147 141 133 155 136 143 150 154 140 148 138
251 274 243 251 183 177 147 152 160 151 137 144 144 160 131 160 118 174 128 165 159 162 97 125 157 138 134 145 131 154 166 156 151 130 165 140 144 121 142 156 133 127 158 140 134
175 277 264 270 287 198 125 122 149 138 114 157 167 184 147 123 142 116 166 153 139 150 146 177 128 152 163 164 156 147 105 116 159 164 151 146 146 141 132 128 154 154 155 138 154
189 204 280 269 270 288 191 206 128 165 130 178 151 134 145 138 157 155 159 147 147 150 139 154 178 155 159 167 164 158 165 135 129 117 155 158 172 111 149 141 154 148 157 142 158
268 248 236 304 260 264 278 269 179 120 139 130 123 134 142 145 150 132 135 153 151 199 138 168 169 168 146 156 163 141 146 123 156 159 95 143 121 153 161 155 133 120 142 156 154
232 257 229 211 244 271 266 143 282 140 127 170 142 128 163 146 137 155 140 134 154 175 144 133 142 173 163 161 149 168 125 170 154 112 147 137 108 93 130 94 100 141 145 135 123
295 209 168 285 258 259 270 271 245 206 210 123 158 124 131 124 119 183 151 134 150 134 147 156 108 195 167 126 169 171 183 164 149 92 91 126 103 154 96 96 145 155 152 140 140
386 250 362 226 361 279 260 266 273 282 222 138 181 121 152 120 152 154 173 152 177 207 136 144 130 145 177 186 155 143 167 165 160 134 149 163 150 154 125 114 112 108 111 151 114
357 244 243 254 266 169 180 227 267 280 278 218 154 132 139 144 151 177 137 171 179 144 130 173 143 141 145 166 193 150 140 142 147 125 97 130 162 127 151 155 141 152 152 137 124
387 393 315 425 186 345 268 282 261 266 256 265 200 169 190 141 173 180 142 185 170 171 166 139 134 134 145 158 188 176 175 178 140 153 159 154 99 158 160 154 157 138 115 149 152
370 285 399 410 390 378 347 312 290 263 262 269 227 197 185 144 187 126 165 123 149 146 187 167 121 150 191 148 175 139 189 173 142 63 158 181 151 142 142 132 175 141 141 148 142
342 369 384 399 326 393 396 214 292 266 270 276 167 165 207 133 175 132 195 145 137 144 163 124 143 166 180 134 162 147 194 182 149 147 142 149 141 153 114 165 132 135 114 71 155
357 346 289 395 381 222 388 286 236 180 279 271 273 242 216 205 161 146 158 187 129 163 135 147 175 148 175 133 161 148 180 178 164 162 141 133 172 140 139 154 109 75 137 151 181
337 341 341 365 243 391 384 339 305 273 274 268 263 271 225 212 208 140 146 142 144 139 133 158 185 170 176 143 147 173 192 180 189 162 164 83 120 128 86 171 82 80 144 145 153
324 332 343 347 376 303 290 352 278 291 264 246 266 268 256 219 211 209 201 195 135 136 162 135 125 133 146 162 144 134 133 181 152 166 163 163 158 153 156 140 128 140 177 177 177
421 348 318 339 348 378 322 207 341 288 290 163 249 238 263 251 218 216 204 156 182 147 133 185 155 122 163 144 129 140 150 133 163 172 174 161 172 172 176 185 185 174 175 163 177
380 399 409 315 336 365 392 301 231 185 202 192 249 147 153 260 256 225 208 200 174 184 141 143 174 123 172 155 129 131 128 136 130 119 141 156 161 117 126 127 162 163 168 170 176
478 431 378 342 311 350 390 371 345 303 181 281 205 243 238 248 257 259 237 215 200 154 193 146 187 164 179 137 187 181 183 123 169 140 124 126 106 100 181 186 123 190 192 179 171
464 455 357 392 321 325 353 374 183 309 297 209 282 257 258 236 242 255 249 214 216 206 197 193 163 196 184 201 185 183 173 174 181 113 132 173 156 136 124 125 126 130 116 188 187
456 442 441 352 412 304 339 380 342 311 295 297 280 240 233 255 227 240 246 247 234 220 210 205 197 193 196 185 195 194 192 201 201 195 190 182 180 178 182 191 154 189 182 182 188
422 435 453 432 383 357 314 367 243 315 295 288 210 259 241 259 250 222 236 241 243 246 230 220 207 192 191 196 194 193 191 194 196 192 193 179 192 184 194 202 195 200 195 195 213
428 446 433 440 345 412 306 327 146 327 299 290 284 262 180 199 169 243 219 230 228 238 253 248 235 210 204 199 202 203 207 197 194 196 201 207 204 62 211 209 205 208 212 211 212
427 428 421 421 413 394 350 299 367 330 304 285 241 276 259 178 241 237 246 223 223 231 230 236 241 253 211 208 207 204 199 193 198 199 198 201 201 210 209 205 206 207 206 214 218